GW5815 Weather Reports


Display with metric or nautical units.
time (UTC)temp
F
wind
direction
speed
MPH
gust
MPH
rain 1hr
in
rain 24hr
in
rain mn
in
humidity
%
barometer
mb
20260506222029 58 195 3.0 6.0 0.01 0.03 0.03 93 1006.7
20260506221542 58 160 2.0 8.0 0.01 0.03 0.03 93 1006.8
20260506221029 58 136 2.0 8.0 0.01 0.03 0.03 93 1006.9
20260506220528 58 146 2.0 9.0 0.01 0.03 0.03 93 1007.1
20260506220045 58 179 2.0 9.0 0.01 0.03 0.03 92 1007.1
20260506215527 58 131 2.0 6.0 0.01 0.03 0.03 92 1007.3
20260506215028 58 172 3.0 7.0 0.01 0.03 0.03 92 1007.1
20260506214536 58 188 3.0 7.0 0.01 0.03 0.03 91 1007.2
20260506214033 58 186 3.0 9.0 0.00 0.02 0.02 91 1007.2
20260506213528 59 112 3.0 9.0 0.00 0.02 0.02 90 1007.1
20260506213035 59 193 3.0 8.0 0.00 0.02 0.02 90 1007.3
20260506212529 59 182 4.0 8.0 0.00 0.02 0.02 89 1007.3
20260506212027 59 153 3.0 10.0 0.00 0.02 0.02 89 1007.4
20260506211550 59 163 3.0 10.0 0.00 0.02 0.02 89 1007.4
20260506211027 59 205 3.0 8.0 0.00 0.02 0.02 89 1007.5
20260506210527 59 160 3.0 11.0 0.00 0.02 0.02 89 1007.5
20260506210039 59 169 4.0 11.0 0.00 0.02 0.02 89 1007.6
20260506205527 59 177 5.0 11.0 0.00 0.02 0.02 89 1007.5
20260506205027 59 84 3.0 7.0 0.00 0.02 0.02 89 1007.6
20260506204539 59 153 3.0 7.0 0.00 0.02 0.02 89 1007.6
20260506204028 59 188 4.0 9.0 0.01 0.02 0.02 89 1007.7
20260506203528 59 176 3.0 9.0 0.01 0.02 0.02 89 1007.7
20260506203047 59 203 3.0 7.0 0.01 0.02 0.02 89 1007.7
20260506202528 59 168 4.0 7.0 0.01 0.02 0.02 89 1007.8
20260506202029 59 174 2.0 9.0 0.02 0.02 0.02 89 1007.8
20260506201537 59 152 3.0 9.0 0.02 0.02 0.02 88 1007.9
20260506201028 59 159 3.0 10.0 0.02 0.02 0.02 88 1007.8
20260506200531 59 129 4.0 10.0 0.02 0.02 0.02 88 1007.7
20260506200042 59 160 4.0 9.0 0.02 0.02 0.02 88 1007.9
20260506195531 60 164 4.0 10.0 0.02 0.02 0.02 87 1007.9
20260506195029 60 90 5.0 10.0 0.02 0.02 0.02 87 1007.7
20260506194543 60 172 3.0 9.0 0.02 0.02 0.02 86 1007.7
20260506194029 61 148 3.0 9.0 0.01 0.01 0.01 85 1007.8
20260506193528 61 205 3.0 8.0 0.01 0.01 0.01 84 1007.9
20260506193035 61 115 2.0 6.0 0.01 0.01 0.01 83 1007.9
20260506192527 61 213 3.0 6.0 0.00 0.00 0.00 82 1007.9
20260506192027 62 177 2.0 8.0 0.00 0.00 0.00 81 1008.0
20260506191543 62 153 1.0 8.0 0.00 0.00 0.00 81 1008.0
20260506191028 62 188 3.0 6.0 0.00 0.00 0.00 80 1008.0
20260506190529 63 203 3.0 6.0 0.00 0.00 0.00 78 1008.0
20260506190043 63 124 3.0 8.0 0.00 0.00 0.00 77 1008.2
20260506185527 64 205 2.0 8.0 0.00 0.00 0.00 75 1008.2
20260506185030 64 165 5.0 9.0 0.00 0.00 0.00 74 1008.2
20260506184541 65 129 4.0 9.0 0.00 0.00 0.00 72 1008.2
20260506184028 65 105 3.0 5.0 0.00 0.00 0.00 72 1008.1
20260506183532 66 205 3.0 6.0 0.00 0.00 0.00 71 1008.1
20260506183041 66 192 2.0 8.0 0.00 0.00 0.00 71 1008.3
20260506182528 66 200 4.0 8.0 0.00 0.00 0.00 70 1008.4
20260506182029 66 211 5.0 10.0 0.00 0.00 0.00 70 1008.4
20260506181547 66 240 3.0 10.0 0.00 0.00 0.00 70 1008.5
20260506181029 67 154 4.0 11.0 0.00 0.00 0.00 69 1008.3
20260506180529 67 131 2.0 11.0 0.00 0.00 0.00 68 1008.3
20260506180044 67 153 5.0 11.0 0.00 0.00 0.00 67 1008.5
20260506175530 67 217 4.0 9.0 0.00 0.00 0.00 67 1008.5
20260506175025 68 184 4.0 9.0 0.00 0.00 0.00 67 1008.6
20260506174542 68 210 4.0 9.0 0.00 0.00 0.00 67 1008.6
20260506174025 68 127 4.0 9.0 0.00 0.00 0.00 66 1008.6
20260506173529 68 141 4.0 9.0 0.00 0.00 0.00 66 1008.7
20260506173054 68 134 4.0 8.0 0.00 0.00 0.00 66 1008.8
20260506172529 69 135 4.0 8.0 0.00 0.00 0.00 65 1008.9
20260506172028 69 146 3.0 12.0 0.00 0.00 0.00 65 1008.9
20260506171537 69 172 5.0 12.0 0.00 0.00 0.00 64 1008.8
20260506171029 69 195 6.0 12.0 0.00 0.00 0.00 63 1008.9
20260506170529 70 165 6.0 14.0 0.00 0.00 0.00 63 1008.8
20260506170037 70 165 7.0 14.0 0.00 0.00 0.00 62 1008.7
20260506165528 70 151 6.0 12.0 0.00 0.00 0.00 62 1008.6
20260506165029 70 188 6.0 12.0 0.00 0.00 0.00 63 1008.9
20260506164536 70 163 5.0 12.0 0.00 0.00 0.00 64 1008.9
20260506164030 69 179 4.0 18.0 0.00 0.00 0.00 64 1009.1
20260506163527 69 207 7.0 18.0 0.00 0.00 0.00 63 1009.3
20260506163042 70 185 6.0 13.0 0.00 0.00 0.00 63 1009.3
20260506162525 70 203 4.0 13.0 0.00 0.00 0.00 63 1009.3
20260506162030 70 168 7.0 13.0 0.00 0.00 0.00 63 1009.4
20260506161543 70 25 3.0 13.0 0.00 0.00 0.00 63 1009.5
20260506161031 70 204 5.0 14.0 0.00 0.00 0.00 63 1009.5
20260506160529 70 207 5.0 14.0 0.00 0.00 0.00 63 1009.7
20260506160041 70 154 6.0 14.0 0.00 0.00 0.00 62 1009.8
20260506155529 70 165 5.0 13.0 0.00 0.00 0.00 63 1009.7
20260506155028 70 156 6.0 13.0 0.00 0.00 0.00 62 1009.8
20260506154538 71 167 4.0 11.0 0.00 0.00 0.00 62 1009.8
20260506154028 71 223 4.0 12.0 0.00 0.00 0.00 62 1009.8
20260506153528 71 188 6.0 12.0 0.00 0.00 0.00 62 1009.8
20260506153035 70 201 4.0 10.0 0.00 0.00 0.00 63 1009.9
20260506152527 70 138 5.0 11.0 0.00 0.00 0.00 63 1010.0
20260506152028 70 220 2.0 11.0 0.00 0.00 0.00 65 1010.0
20260506151545 70 204 6.0 12.0 0.00 0.00 0.00 64 1010.0
20260506151028 69 228 4.0 12.0 0.00 0.00 0.00 65 1010.0
20260506150529 69 151 3.0 11.0 0.00 0.00 0.00 65 1010.1
20260506150049 69 168 3.0 7.0 0.00 0.00 0.00 66 1010.1
20260506145527 69 156 4.0 11.0 0.00 0.00 0.00 66 1010.2
20260506145028 68 187 4.0 11.0 0.00 0.00 0.00 66 1010.1
20260506144543 69 193 3.0 12.0 0.00 0.00 0.00 67 1010.2
20260506144031 68 205 5.0 12.0 0.00 0.00 0.00 66 1010.1
20260506143528 69 129 3.0 9.0 0.00 0.00 0.00 67 1010.0
20260506143036 68 138 3.0 11.0 0.00 0.00 0.00 67 1010.0
20260506142528 68 186 5.0 17.0 0.00 0.00 0.00 67 1009.9
20260506142027 68 175 7.0 17.0 0.00 0.00 0.00 66 1009.8
20260506141537 68 192 6.0 13.0 0.00 0.00 0.00 65 1009.9
20260506141032 68 201 6.0 16.0 0.00 0.00 0.00 65 1009.9
20260506140528 68 190 6.0 16.0 0.00 0.00 0.00 65 1010.0
20260506140043 69 180 6.0 14.0 0.00 0.00 0.00 65 1009.9
20260506135526 68 211 1.0 8.0 0.00 0.00 0.00 68 1009.9
20260506135029 68 143 5.0 10.0 0.00 0.00 0.00 67 1009.9
20260506134547 68 217 3.0 10.0 0.00 0.00 0.00 67 1009.9
20260506134029 67 165 5.0 10.0 0.00 0.00 0.00 68 1009.9
20260506133529 67 150 4.0 13.0 0.00 0.00 0.00 70 1010.1
20260506133038 66 148 4.0 13.0 0.00 0.00 0.00 70 1010.4
20260506132528 66 166 5.0 10.0 0.00 0.00 0.00 70 1010.6
20260506132030 67 121 3.0 11.0 0.00 0.00 0.00 69 1010.6
20260506131547 67 153 5.0 11.0 0.00 0.00 0.00 71 1010.5
20260506131030 66 150 4.0 9.0 0.00 0.00 0.00 72 1010.7
20260506130532 65 159 3.0 7.0 0.00 0.00 0.00 73 1010.6
20260506130052 65 155 3.0 9.0 0.00 0.00 0.00 73 1010.5
20260506125527 65 177 4.0 9.0 0.00 0.00 0.00 72 1010.6
20260506125028 65 176 3.0 7.0 0.00 0.00 0.00 74 1010.6
20260506124535 64 210 3.0 8.0 0.00 0.00 0.00 76 1010.6
20260506124028 64 129 3.0 8.0 0.00 0.00 0.00 76 1010.7
20260506123531 63 210 3.0 8.0 0.00 0.00 0.00 76 1010.6
20260506123043 63 150 3.0 8.0 0.00 0.00 0.00 77 1010.6
20260506122531 63 146 4.0 8.0 0.00 0.00 0.00 77 1010.7
20260506122028 63 159 4.0 8.0 0.00 0.00 0.00 78 1010.6
20260506121539 63 199 3.0 7.0 0.00 0.00 0.00 78 1010.6
20260506121028 62 161 3.0 7.0 0.00 0.00 0.00 79 1010.4
20260506120532 62 125 2.0 5.0 0.00 0.00 0.00 80 1010.4
20260506120036 61 179 2.0 5.0 0.00 0.00 0.00 81 1010.6
20260506115529 61 108 2.0 5.0 0.00 0.00 0.00 82 1010.8
20260506115028 60 163 1.0 6.0 0.00 0.00 0.00 84 1010.8
20260506114535 59 161 2.0 6.0 0.00 0.00 0.00 84 1011.0
20260506114031 59 161 2.0 5.0 0.00 0.00 0.00 84 1011.1
20260506113527 59 150 1.0 4.0 0.00 0.00 0.00 84 1011.0
20260506113036 59 155 2.0 4.0 0.00 0.00 0.00 84 1011.1
20260506112529 59 153 2.0 5.0 0.00 0.00 0.00 84 1011.1
20260506112028 59 0 2.0 5.0 0.00 0.00 0.00 84 1011.0
20260506111535 59 131 2.0 5.0 0.00 0.00 0.00 84 1011.1
20260506111030 58 148 2.0 5.0 0.00 0.00 0.00 86 1011.0
20260506110532 58 167 1.0 4.0 0.00 0.00 0.00 87 1011.0
20260506110038 57 136 2.0 4.0 0.00 0.00 0.00 87 1011.0
20260506105527 57 151 1.0 4.0 0.00 0.00 0.00 86 1011.0
20260506105030 58 142 1.0 4.0 0.00 0.00 0.00 86 1011.0
20260506104536 58 153 0.0 3.0 0.00 0.00 0.00 86 1011.0
20260506104027 58 149 1.0 8.0 0.00 0.00 0.00 86 1011.1
20260506103528 58 150 1.0 8.0 0.00 0.00 0.00 86 1011.0
20260506103040 58 124 1.0 5.0 0.00 0.00 0.00 86 1011.0
20260506102528 58 145 1.0 5.0 0.00 0.00 0.00 86 1011.1
20260506102028 58 145 2.0 5.0 0.00 0.00 0.00 86 1010.9
20260506101536 58 142 1.0 5.0 0.00 0.00 0.00 85 1010.9
20260506101028 58 147 2.0 7.0 0.00 0.00 0.00 85 1011.0
20260506100529 58 146 2.0 7.0 0.00 0.00 0.00 85 1010.9
20260506100038 58 171 1.0 5.0 0.00 0.00 0.00 85 1010.8
20260506095528 58 153 2.0 5.0 0.00 0.00 0.00 85 1010.8
20260506095027 58 149 1.0 5.0 0.00 0.00 0.00 85 1010.8
20260506094549 58 172 3.0 5.0 0.00 0.00 0.00 85 1010.7
20260506094031 58 162 3.0 6.0 0.00 0.00 0.00 85 1010.7
20260506093527 58 209 1.0 6.0 0.00 0.00 0.00 84 1010.7
20260506093039 58 160 2.0 6.0 0.00 0.00 0.00 84 1010.8
20260506092528 58 201 2.0 6.0 0.00 0.00 0.00 84 1010.9
20260506092029 58 227 1.0 6.0 0.00 0.00 0.00 84 1010.8
20260506091537 58 200 2.0 6.0 0.00 0.00 0.00 84 1010.9
20260506091030 58 160 2.0 6.0 0.00 0.00 0.00 84 1010.8
20260506090527 58 196 3.0 6.0 0.00 0.00 0.00 84 1010.9
20260506090035 59 188 3.0 6.0 0.00 0.00 0.00 84 1010.9
20260506085527 59 155 2.0 5.0 0.00 0.00 0.00 83 1011.0
20260506085027 59 170 2.0 9.0 0.00 0.00 0.00 83 1011.0
20260506084545 59 147 4.0 9.0 0.00 0.00 0.00 83 1011.1
20260506084028 59 195 2.0 4.0 0.00 0.00 0.00 82 1011.1
20260506083527 59 178 2.0 11.0 0.00 0.00 0.00 82 1011.1
20260506083039 59 224 2.0 11.0 0.00 0.00 0.00 82 1011.0
20260506082530 60 152 5.0 11.0 0.00 0.00 0.00 81 1011.1
20260506082032 60 150 4.0 8.0 0.00 0.00 0.00 81 1011.0
20260506081537 60 170 4.0 9.0 0.00 0.00 0.00 81 1011.0
20260506081028 60 203 4.0 11.0 0.00 0.00 0.00 81 1011.0
20260506080528 60 167 4.0 11.0 0.00 0.00 0.00 81 1011.0
20260506073528 60 160 2.0 10.0 0.00 0.00 0.00 80 1011.1
20260506073043 60 165 4.0 9.0 0.00 0.00 0.00 80 1010.8
20260506072531 60 195 2.0 7.0 0.00 0.00 0.00 80 1010.8
20260506072029 60 149 2.0 9.0 0.00 0.00 0.00 79 1010.9
20260506071545 60 150 1.0 9.0 0.00 0.00 0.00 79 1010.8
20260506071031 60 139 4.0 9.0 0.00 0.00 0.00 79 1010.8
20260506070531 60 169 3.0 9.0 0.00 0.00 0.00 79 1010.8
20260506062028 61 172 2.0 8.0 0.00 0.00 0.00 78 1010.7
20260506061536 61 190 3.0 9.0 0.00 0.00 0.00 78 1010.7
20260506061031 61 172 4.0 9.0 0.00 0.00 0.00 78 1010.8
20260506060531 61 178 3.0 7.0 0.00 0.00 0.00 77 1010.8
20260506051030 62 198 4.0 8.0 0.00 0.00 0.00 73 1011.3
20260506050528 62 198 3.0 7.0 0.00 0.00 0.00 73 1011.3
20260506045027 62 162 3.0 7.0 0.00 0.00 0.00 72 1011.3
20260506044536 62 153 3.0 8.0 0.00 0.00 0.00 72 1011.4
20260506044026 62 193 4.0 8.0 0.00 0.00 0.00 72 1011.5
20260506043525 62 170 4.0 11.0 0.00 0.00 0.00 72 1011.4
20260506043043 62 234 3.0 11.0 0.00 0.00 0.00 71 1011.5
20260506042525 62 131 4.0 8.0 0.00 0.00 0.00 71 1011.4
20260506042025 62 160 3.0 7.0 0.00 0.00 0.00 71 1011.4
20260506041537 62 165 3.0 8.0 0.00 0.00 0.00 71 1011.5
20260506041027 62 151 5.0 8.0 0.00 0.00 0.00 70 1011.4
20260506040529 62 193 4.0 11.0 0.00 0.00 0.00 70 1011.3
20260506040037 62 159 4.0 11.0 0.00 0.00 0.00 70 1011.3
20260506035527 62 167 4.0 10.0 0.00 0.00 0.00 70 1011.4
20260506035027 62 148 3.0 9.0 0.00 0.00 0.00 69 1011.4
20260506034535 62 168 3.0 7.0 0.00 0.00 0.00 69 1011.2
20260506034025 62 129 2.0 6.0 0.00 0.00 0.00 69 1011.3
20260506033525 62 172 3.0 8.0 0.00 0.00 0.00 69 1011.2
20260506033039 62 162 4.0 9.0 0.00 0.00 0.00 68 1011.2
20260506032527 62 206 5.0 9.0 0.00 0.00 0.00 68 1011.3
20260506032025 62 156 3.0 10.0 0.00 0.00 0.00 68 1011.2
20260506031537 62 167 3.0 10.0 0.00 0.00 0.00 68 1011.1
20260506031025 62 156 3.0 10.0 0.00 0.00 0.00 68 1011.1
20260506030527 63 194 3.0 10.0 0.00 0.00 0.00 68 1011.2
20260506030038 63 178 4.0 12.0 0.00 0.00 0.00 68 1011.2
20260506025526 63 169 5.0 12.0 0.00 0.00 0.00 67 1011.1
20260506025028 62 188 4.0 11.0 0.00 0.00 0.00 68 1011.2
20260506024545 62 150 2.0 7.0 0.00 0.00 0.00 68 1011.2
20260506024027 62 216 2.0 8.0 0.00 0.00 0.00 68 1011.2
20260506023528 62 176 3.0 8.0 0.00 0.00 0.00 68 1011.2
20260506023041 62 153 3.0 9.0 0.00 0.00 0.00 68 1011.2
20260506022530 62 219 4.0 9.0 0.00 0.00 0.00 68 1011.2
20260506022025 62 233 3.0 7.0 0.00 0.00 0.00 69 1011.2
20260506021538 62 165 2.0 7.0 0.00 0.00 0.00 69 1011.2
20260506021026 62 181 3.0 7.0 0.00 0.00 0.00 68 1011.3
20260506020529 62 193 3.0 6.0 0.00 0.00 0.00 69 1011.2
20260506020036 62 218 2.0 6.0 0.00 0.00 0.00 69 1011.2
20260506015532 62 110 2.0 9.0 0.00 0.00 0.00 69 1011.2
20260506015028 62 137 4.0 9.0 0.00 0.00 0.00 68 1011.2
20260506014538 62 168 3.0 7.0 0.00 0.00 0.00 68 1011.2
20260506014027 62 267 3.0 12.0 0.00 0.00 0.00 68 1011.1
20260506013527 62 117 3.0 12.0 0.00 0.00 0.00 68 1011.1
20260506013043 62 191 3.0 8.0 0.00 0.00 0.00 68 1011.2
20260506012528 62 142 4.0 9.0 0.00 0.00 0.00 68 1011.1
20260506012028 62 136 4.0 9.0 0.00 0.00 0.00 68 1011.1
20260506011540 62 124 2.0 9.0 0.00 0.00 0.00 68 1010.9
20260506011025 62 191 3.0 9.0 0.00 0.00 0.00 67 1010.9
20260506010525 62 136 4.0 9.0 0.00 0.00 0.00 67 1010.9
20260506010038 62 153 2.0 8.0 0.00 0.00 0.00 67 1011.0
20260506005525 62 136 3.0 8.0 0.00 0.00 0.00 67 1011.0
20260506005024 62 172 3.0 8.0 0.00 0.00 0.00 67 1010.8
20260506004536 62 153 2.0 7.0 0.00 0.00 0.00 67 1010.8
20260506004028 62 145 2.0 5.0 0.00 0.00 0.00 67 1010.8
20260506003526 62 168 1.0 7.0 0.00 0.00 0.00 67 1010.6
20260506003042 62 193 2.0 7.0 0.00 0.00 0.00 67 1010.5
20260506002525 62 231 5.0 8.0 0.00 0.00 0.00 66 1010.4
20260506002025 63 143 3.0 8.0 0.00 0.00 0.00 66 1010.3
20260506001542 63 153 3.0 10.0 0.00 0.00 0.00 66 1010.3
20260506001027 63 205 2.0 10.0 0.00 0.00 0.00 66 1010.1
20260506000525 63 195 2.0 7.0 0.00 0.00 0.00 66 1010.1
20260506000040 63 175 3.0 7.0 0.00 0.00 0.00 65 1009.9
20260505235525 64 157 3.0 7.0 0.00 0.00 0.00 65 1009.9
20260505235025 64 198 3.0 11.0 0.00 0.00 0.00 64 1009.7
20260505234538 64 153 4.0 11.0 0.00 0.00 0.00 64 1009.6
20260505234025 64 182 3.0 10.0 0.00 0.00 0.00 64 1009.6
20260505233527 65 169 5.0 10.0 0.00 0.00 0.00 63 1009.5
20260505233059 65 136 3.0 7.0 0.00 0.00 0.00 63 1009.6
20260505232527 65 157 2.0 8.0 0.00 0.00 0.00 62 1009.6
20260505232027 66 153 3.0 9.0 0.00 0.00 0.00 62 1009.4
20260505231544 66 188 5.0 12.0 0.00 0.00 0.00 61 1009.3
20260505231030 66 137 4.0 12.0 0.00 0.00 0.00 60 1009.1
20260505230530 67 160 5.0 11.0 0.00 0.00 0.00 60 1009.1
20260505230051 67 162 3.0 13.0 0.00 0.00 0.00 58 1009.0
20260505225533 67 186 4.0 13.0 0.00 0.00 0.00 58 1008.8
20260505225034 68 176 6.0 13.0 0.00 0.00 0.00 57 1008.7
20260505224537 67 169 4.0 10.0 0.00 0.00 0.00 58 1008.6
20260505224027 67 153 3.0 8.0 0.00 0.00 0.00 59 1008.5
20260505223532 67 150 3.0 7.0 0.00 0.00 0.00 60 1008.6
20260505223036 67 193 4.0 9.0 0.00 0.00 0.00 60 1008.5
20260505222527 67 165 4.0 9.0 0.00 0.00 0.00 59 1008.5